Location: Sternwarte ZA, Rosenfeld-Brittheim
(48.2889°N, 8.6789°E)
Time: 16:37:00
(UTC+02:00)

ISS - Pass Details

Date: 24 May 2020
Orbit: 417 x 420 km, 51.6° (Epoch: 25 May)

Event Time Altitude Azimuth Distance (km) Brightness Sun altitude
Rises 23:06:39 0° 288° (WNW) 2,367 0.9 -14.4°
Reaches altitude 10° 23:08:47 10° 293° (WNW) 1,503 -0.1 -14.6°
Maximum altitude 23:12:06 56° 13° (NNE) 505 -3.2 -14.9°
Enters shadow 23:14:42 15° 90° (E) 1,215 -1.7 -15.1°
